This demonstration page uses our WeatherBlox Daily Observations layout. Learn more.

36.19886, -115.1175

Hourly Observations for May 25, 2018

Temp ( °F °C ) Dew Point ( °F °C ) Humidity (%) Winds ( mph kmh ) Pressure ( in mb ) Visibility ( mi km ) Precip ( " mm )
12:53 am 00:53 Clear 78 25.6 32 0 19 19 S 8 13 29.85 1011 10 16.09344 0 0
1:53 am 01:53 Clear 77 25 36 2.2 23 23 S 9 15 29.85 1011 10 16.09344 0 0
2:53 am 02:53 Clear 76 24.4 39 3.9 26 26 S 8 13 29.85 1011 10 16.09344 0 0
3:53 am 03:53 Clear 74 23.3 41 5 31 31 S 7 11 29.85 1011 10 16.09344 0 0
4:53 am 04:53 Clear 73 22.8 42 5.6 33 33 WSW 3 6 29.85 1011 10 16.09344 0 0
5:53 am 05:53 Sunny 70 21.1 42 5.6 37 37 ESE 6 9 29.88 1012 10 16.09344 0 0
6:53 am 06:53 Sunny 73 22.8 42 5.6 33 33 ESE 5 7 29.88 1012 10 16.09344 0 0
7:53 am 07:53 Sunny 77 25 41 5 28 28 SSE 13 20 29.88 1012 10 16.09344 0 0
8:53 am 08:53 Sunny 79 26.1 40 4.4 25 25 SE 13 20 29.88 1012 10 16.09344 0 0
9:53 am 09:53 Sunny 81 27.2 38 3.3 21 21 SE 12 19 29.88 1012 10 16.09344 0 0
10:53 am 10:53 Sunny 83 28.3 36 2.2 19 19 S 13 20 29.88 1012 10 16.09344 0 0
11:53 am 11:53 Sunny 87 30.6 29 -1.7 12 12 SSW 16 26 29.85 1011 10 16.09344 0 0
12:53 pm 12:53 Sunny 87 30.6 25 -3.9 10 10 S 20 31 29.83 1010 10 16.09344 0 0
1:53 pm 13:53 Sunny 89 31.7 20 -6.7 8 8 SW 22 35 29.83 1010 10 16.09344 0 0
2:53 pm 14:53 Sunny 89 31.7 24 -4.4 9 9 SW 16 26 29.8 1009 10 16.09344 0 0
3:53 pm 15:53 Sunny 88 31.1 24 -4.4 10 10 SW 16 26 29.77 1008 10 16.09344 0 0
4:53 pm 16:53 Sunny 88 31.1 25 -3.9 10 10 SW 18 30 29.77 1008 10 16.09344 0 0
5:53 pm 17:53 Sunny 86 30 21 -6.1 9 9 WSW 21 33 29.77 1008 10 16.09344 0 0
6:53 pm 18:53 Sunny 84 28.9 19 -7.2 9 9 WSW 14 22 29.77 1008 10 16.09344 0 0
7:53 pm 19:53 Clear 81 27.2 23 -5 12 12 W 16 26 29.77 1008 10 16.09344 0 0
8:53 pm 20:53 Clear 79 26.1 24 -4.4 13 13 W 10 17 29.77 1008 10 16.09344 0 0
9:53 pm 21:53 Clear 77 25 28 -2.2 16 16 W 12 19 29.77 1008 10 16.09344 0 0
10:53 pm 22:53 Clear 76 24.4 30 -1.1 18 18 WSW 10 17 29.77 1008 10 16.09344 0 0
11:53 pm 23:53 Clear 75 23.9 31 -0.6 20 20 SW 10 17 29.77 1008 10 16.09344 0 0

Powered by AerisWeather